Weather History for Meknes, Morocco

Change the Weather History Date:

Tuesday, September 11, 2012

  Actual Average Record
Temperature  
Mean Temperature 70 °F -  
Max Temperature 84 °F - - ()
Min Temperature 57 °F - - ()
Cooling Degree Days 6    
Growing Degree Days 20 (Base 50)    
Moisture  
Dew Point 56 °F    
Average Humidity 61    
Maximum Humidity 88    
Minimum Humidity 19    
Precipitation  
Precipitation 0.00 in - - ()
Sea Level Pressure  
Sea Level Pressure 30.07 in    
Wind  
Wind Speed 4 mph ()    
Max Wind Speed 10 mph    
Max Gust Speed -    
Visibility 6.0 miles    
Events      
T = Trace of Precipitation, MM = Missing Value Source: Averaged Metar Reports

Daily Weather History Graph

Daily Weather History Graph

Search for Another Location

Airport:

Trip Planner

Search our weather history database for the weather conditions in past years. The results will help you decide how hot, cold, wet, or windy it might be!

Date:

Astronomy

Sep. 11, 2012 Rise Set
Actual Time 7:02 AM WEST 7:33 PM WEST
Civil Twilight 6:37 AM WEST 7:58 PM WEST
Nautical Twilight 6:08 AM WEST 8:28 PM WEST
Astronomical Twilight 5:38 AM WEST 8:58 PM WEST
Moon 2:17 AM WEST (9/11) 4:25 PM WEST (9/11)
Length of Visible Light 13h 21m
Length of Day
12h 30m
Waning Crescent, 23% of the Moon is Illuminated
Sep 11
Waning Crescent
Sep 16
New
Sep 22
First Quarter
Sep 30
Full
Oct 8
Last Quarter

Hourly Weather History & Observations

Time (WEST) Temp. Heat Index Dew Point Humidity Pressure Visibility Wind Dir Wind Speed Gust Speed Precip Events Conditions
12:00 AM 64.4 °F - 59.0 °F 83% 30.15 in - WNW 4.6 mph - N/A   Clear
1:00 AM 63 °F - 58 °F 80% 30.10 in 6 mi West 3.5 mph - -   Scattered Clouds
1:00 AM 62.6 °F - 59.0 °F 88% 30.15 in - West 3.5 mph - N/A   Clear
2:00 AM 60.8 °F - 57.2 °F 88% 30.12 in - Calm Calm - N/A   Clear
3:00 AM 60.8 °F - 57.2 °F 88% 30.12 in - Calm Calm - N/A   Clear
4:00 AM 60 °F - 56 °F 84% 30.07 in 6 mi Calm Calm - -   Scattered Clouds
5:00 AM 59.0 °F - 55.4 °F 88% 30.09 in - Calm Calm - N/A   Clear
6:00 AM 59.0 °F - 55.4 °F 88% 30.09 in - Calm Calm - N/A   Clear
7:00 AM 59 °F - 55 °F 83% 30.06 in 6 mi Calm Calm - -  
7:00 AM 59.0 °F - 55.4 °F 88% 30.09 in - Calm Calm - N/A   Clear
8:00 AM 62.6 °F - 57.2 °F 82% 30.09 in - Calm Calm - N/A   Clear
9:00 AM 66.2 °F - 55.4 °F 68% 30.09 in - NE 2.3 mph - N/A   Clear
10:00 AM 71 °F - 57 °F 52% 30.03 in 6 mi ENE 6.9 mph - -  
10:00 AM 71.6 °F - 57.2 °F 60% 30.09 in - ENE 6.9 mph - N/A   Clear
11:00 AM 75.2 °F - 57.2 °F 53% 30.09 in - NNE 4.6 mph - N/A   Clear
12:00 PM 75.2 °F - 57.2 °F 53% 30.09 in - NNW 6.9 mph - N/A   Clear
1:00 PM 80 °F - 58 °F 36% 29.98 in 6 mi NW 6.9 mph - -  
1:00 PM 80.6 °F 80.8 °F 57.2 °F 45% 30.06 in - NW 6.9 mph - N/A   Clear
2:00 PM 80.6 °F 80.8 °F 57.2 °F 45% 30.06 in - NW 6.9 mph - N/A   Clear
3:00 PM 82.4 °F 82.0 °F 57.2 °F 42% 30.06 in - NW 8.1 mph - N/A   Clear
4:00 PM 83 °F - 56 °F 29% 29.92 in 6 mi WNW 6.9 mph - -  
4:00 PM 82.4 °F 81.7 °F 55.4 °F 39% 30.04 in - WNW 6.9 mph - N/A   Clear
5:00 PM 84.2 °F - 37.4 °F 19% 30.04 in - NW 8.1 mph - N/A   Clear
6:00 PM 82.4 °F 81.7 °F 55.4 °F 39% 30.04 in - NW 10.4 mph - N/A   Clear
7:00 PM 79 °F - 58 °F 38% 29.95 in 6 mi NNW 10.4 mph - -  
7:00 PM 78.8 °F - 57.2 °F 47% 30.04 in - NNW 10.4 mph - N/A   Clear
8:00 PM 75.2 °F - 59.0 °F 57% 30.06 in - NW 9.2 mph - N/A   Clear
9:00 PM 73.4 °F - 57.2 °F 57% 30.09 in - West 6.9 mph - N/A   Clear
10:00 PM 69 °F - 55 °F 52% 30.06 in 6 mi WSW 3.5 mph - -  
10:00 PM 69.8 °F - 55.4 °F 60% 30.12 in - WSW 3.5 mph - N/A   Clear
11:00 PM 68.0 °F - 57.2 °F 68% 30.12 in - West 3.5 mph - N/A   Clear